TimeCST,TemperatureF,Dew PointF,Humidity,Sea Level PressureIn,VisibilityMPH,Wind Direction,Wind SpeedMPH,Gust SpeedMPH,PrecipitationIn,Events,Conditions,WindDirDegrees,DateUTC
12:53 AM,19.0,16.0,88,30.05,10.0,Calm,Calm,-,N/A,,Clear,0,2012-12-14 06:53:00
1:53 AM,16.0,14.0,92,30.02,10.0,NW,3.5,-,N/A,,Clear,320,2012-12-14 07:53:00
2:53 AM,14.0,10.0,84,30.00,10.0,South,4.6,-,N/A,,Clear,190,2012-12-14 08:53:00
3:53 AM,12.9,10.9,92,29.99,10.0,Calm,Calm,-,N/A,,Clear,0,2012-12-14 09:53:00
4:53 AM,12.9,10.0,88,29.97,10.0,Calm,Calm,-,N/A,,Clear,0,2012-12-14 10:53:00
5:53 AM,10.9,9.0,92,29.99,9.0,NW,5.8,-,N/A,,Clear,320,2012-12-14 11:53:00
6:53 AM,10.0,7.0,87,30.00,10.0,Calm,Calm,-,N/A,,Clear,0,2012-12-14 12:53:00
7:53 AM,10.0,7.0,87,29.99,8.0,NW,6.9,-,N/A,,Clear,310,2012-12-14 13:53:00
8:53 AM,18.0,15.1,88,29.96,9.0,NW,3.5,-,N/A,,Clear,310,2012-12-14 14:53:00
9:53 AM,24.1,17.1,75,29.93,9.0,Calm,Calm,-,N/A,,Clear,0,2012-12-14 15:53:00
10:53 AM,30.0,19.9,66,29.91,9.0,ESE,5.8,-,N/A,,Clear,120,2012-12-14 16:53:00
11:53 AM,35.1,21.0,57,29.85,10.0,ESE,4.6,-,N/A,,Clear,120,2012-12-14 17:53:00
12:53 PM,39.9,21.9,49,29.79,10.0,South,8.1,-,N/A,,Clear,180,2012-12-14 18:53:00
1:53 PM,42.1,21.0,43,29.75,10.0,SSE,11.5,-,N/A,,Clear,160,2012-12-14 19:53:00
2:53 PM,41.0,21.9,47,29.74,10.0,SSE,6.9,-,N/A,,Clear,150,2012-12-14 20:53:00
3:53 PM,43.0,24.1,47,29.73,10.0,Calm,Calm,-,N/A,,Partly Cloudy,0,2012-12-14 21:53:00
4:53 PM,45.0,27.0,49,29.73,10.0,South,13.8,-,N/A,,Mostly Cloudy,180,2012-12-14 22:53:00
5:53 PM,41.0,28.0,60,29.72,10.0,SSE,4.6,-,N/A,,Clear,160,2012-12-14 23:53:00
6:53 PM,41.0,30.0,65,29.68,10.0,Calm,Calm,-,N/A,,Clear,0,2012-12-15 00:53:00
7:53 PM,39.0,32.0,76,29.65,10.0,ESE,5.8,-,0.00,Rain,Light Rain,120,2012-12-15 01:53:00
8:09 PM,41.0,33.8,76,29.56,10.0,ESE,9.2,-,0.00,,Overcast,120,2012-12-15 02:09:00
8:46 PM,42.8,39.2,87,29.57,10.0,South,5.8,-,0.00,,Overcast,170,2012-12-15 02:46:00
8:53 PM,43.0,39.9,89,29.62,10.0,SSE,8.1,-,0.00,,Overcast,150,2012-12-15 02:53:00
9:01 PM,42.8,41.0,93,29.57,10.0,South,4.6,-,N/A,,Overcast,180,2012-12-15 03:01:00
9:53 PM,43.0,39.9,89,29.60,8.0,Calm,Calm,-,N/A,,Overcast,0,2012-12-15 03:53:00
10:28 PM,39.2,37.4,93,29.53,1.8,Calm,Calm,-,0.01,Rain,Light Rain,0,2012-12-15 04:28:00
10:47 PM,39.2,37.4,93,29.52,2.0,NW,4.6,-,0.02,Rain,Light Rain,320,2012-12-15 04:47:00
10:53 PM,37.9,37.0,97,29.57,2.0,NW,4.6,-,0.02,Rain,Light Rain,320,2012-12-15 04:53:00
11:06 PM,37.4,37.4,100,29.52,1.8,WNW,3.5,-,0.01,Rain,Light Rain,300,2012-12-15 05:06:00
11:49 PM,39.2,37.4,93,29.50,2.0,Calm,Calm,-,0.08,Rain,Light Rain,0,2012-12-15 05:49:00
11:53 PM,39.0,37.9,96,29.54,2.0,Calm,Calm,-,0.09,Rain,Light Rain,0,2012-12-15 05:53:00